DW9177 Weather Reports


Display with metric or nautical units.
time (UTC)temp
F
wind
direction
speed
MPH
gust
MPH
rain 1hr
in
rain 24hr
in
rain mn
in
humidity
%
barometer
mb
20260506134617 59 227 0.0 0.0 0.00 0.00 0.00 63 1013.4
20260506133055 59 148 0.0 0.0 0.00 0.00 0.00 63 1013.4
20260506131608 56 148 0.0 0.0 0.00 0.00 0.00 70 1013.3
20260506130053 53 148 0.0 0.0 0.00 0.00 0.00 75 1013.2
20260506124552 51 148 0.0 0.0 0.00 0.01 0.00 76 1013.1
20260506123050 51 148 0.0 0.0 0.00 0.01 0.00 75 1013.0
20260506121547 51 148 0.0 0.0 0.00 0.01 0.00 74 1012.8
20260506120044 52 148 0.0 0.0 0.00 0.01 0.00 72 1012.6
20260506114547 52 148 0.0 0.0 0.00 0.03 0.00 70 1012.3
20260506113041 52 150 0.0 1.0 0.00 0.03 0.00 70 1012.2
20260506111537 53 155 0.0 2.0 0.00 0.03 0.00 69 1012.2
20260506110035 53 183 0.0 3.0 0.00 0.03 0.00 69 1012.0
20260506104533 54 135 0.0 0.0 0.00 0.06 0.00 69 1012.0
20260506103033 54 187 1.0 2.0 0.00 0.06 0.00 67 1012.0
20260506101529 55 157 0.0 1.0 0.00 0.06 0.00 66 1011.8
20260506100033 55 215 0.0 0.0 0.00 0.06 0.00 66 1011.8
20260506094527 55 168 1.0 3.0 0.00 0.10 0.00 66 1011.6
20260506093027 56 160 0.0 3.0 0.00 0.10 0.00 67 1011.6
20260506091524 56 182 1.0 3.0 0.00 0.10 0.00 68 1011.4
20260506090021 57 158 1.0 4.0 0.00 0.10 0.00 68 1011.4
20260506084519 57 134 0.0 4.0 0.00 0.15 0.00 67 1011.6
20260506083017 57 163 2.0 5.0 0.00 0.15 0.00 66 1011.5
20260506081519 58 160 0.0 0.0 0.00 0.15 0.00 65 1011.7
20260506073005 60 228 0.0 0.0 0.00 0.22 0.00 61 1011.8
20260506071502 60 239 0.0 0.0 0.00 0.22 0.00 60 1011.8
20260506070126 61 233 0.0 4.0 0.00 0.22 0.00 59 1011.6
20260506061558 62 276 0.0 3.0 0.00 0.26 0.22 56 1011.3
20260506050105 64 273 0.0 3.0 0.00 0.28 0.22 52 1011.0
20260506044553 64 295 1.0 4.0 0.00 0.28 0.22 51 1010.8
20260506043051 64 272 2.0 8.0 0.00 0.28 0.22 50 1010.6
20260506041549 65 242 3.0 8.0 0.00 0.28 0.22 48 1010.3
20260506040049 65 263 3.0 8.0 0.00 0.28 0.22 44 1010.1
20260506034551 66 255 1.0 5.0 0.00 0.30 0.22 40 1009.9
20260506033048 66 266 1.0 6.0 0.00 0.30 0.22 38 1009.8
20260506031547 67 240 2.0 6.0 0.00 0.30 0.22 37 1009.6
20260506030047 67 268 1.0 10.0 0.00 0.30 0.22 36 1009.4
20260506024554 68 201 3.0 12.0 0.00 0.36 0.22 36 1009.2
20260506023045 68 259 3.0 10.0 0.00 0.36 0.22 37 1008.9
20260506021545 68 262 3.0 12.0 0.00 0.36 0.22 37 1008.6
20260506020055 70 278 4.0 11.0 0.00 0.36 0.22 35 1008.3
20260506014548 71 271 5.0 15.0 0.00 0.43 0.22 35 1008.2
20260506013143 72 274 6.0 18.0 0.00 0.43 0.22 33 1008.0
20260506011606 74 213 4.0 12.0 0.00 0.43 0.22 29 1007.8
20260506010043 74 330 8.0 14.0 0.00 0.43 0.22 29 1007.7
20260506004557 75 293 5.0 15.0 0.00 0.46 0.22 30 1007.5
20260506003040 75 264 7.0 14.0 0.00 0.46 0.22 29 1007.4
20260506001544 75 264 5.0 9.0 0.00 0.46 0.22 31 1007.3
20260506000108 75 259 5.0 16.0 0.00 0.46 0.22 30 1007.2
20260505234545 76 226 5.0 16.0 0.00 0.46 0.22 29 1007.0
20260505233036 76 248 6.0 14.0 0.00 0.46 0.22 28 1007.0
20260505231537 76 259 4.0 14.0 0.00 0.46 0.22 28 1007.0
20260505230051 77 237 8.0 16.0 0.00 0.46 0.22 28 1007.0
20260505224539 76 257 5.0 17.0 0.00 0.46 0.22 29 1007.0
20260505223032 76 270 8.0 16.0 0.00 0.46 0.22 28 1007.3
20260505221529 76 226 7.0 17.0 0.00 0.46 0.22 29 1007.2
20260505220026 76 225 7.0 18.0 0.00 0.46 0.22 31 1007.3
20260505214528 76 285 6.0 19.0 0.00 0.46 0.22 34 1007.5
20260505213025 76 231 10.0 23.0 0.00 0.46 0.22 33 1007.6
20260505211526 74 238 8.0 23.0 0.00 0.46 0.22 38 1007.7
20260505210018 74 290 9.0 17.0 0.00 0.46 0.22 37 1007.8
20260505204515 75 243 6.0 15.0 0.00 0.46 0.22 40 1007.9
20260505203014 74 338 6.0 17.0 0.00 0.46 0.22 40 1008.0
20260505201512 74 224 2.0 10.0 0.00 0.46 0.22 41 1008.1
20260505200011 74 281 2.0 8.0 0.00 0.46 0.22 49 1008.2
20260505194508 74 271 4.0 7.0 0.00 0.46 0.22 49 1008.4
20260505193009 73 11 4.0 8.0 0.00 0.46 0.22 50 1008.3
20260505191504 72 268 1.0 7.0 0.00 0.46 0.22 53 1008.6
20260505190005 71 288 3.0 8.0 0.00 0.46 0.22 54 1008.9
20260505184505 71 233 2.0 7.0 0.00 0.46 0.22 54 1009.2
20260505183100 70 314 1.0 6.0 0.00 0.46 0.22 58 1009.3
20260505181559 69 341 2.0 6.0 0.00 0.46 0.22 60 1009.4
20260505174556 69 226 0.0 6.0 0.00 0.46 0.22 60 1009.7
20260505173111 68 145 0.0 3.0 0.00 0.46 0.22 62 1009.7
20260505171603 65 319 0.0 3.0 0.00 0.46 0.22 68 1009.8
20260505170047 65 37 0.0 0.0 0.00 0.46 0.22 69 1009.6
20260505164545 64 333 0.0 1.0 0.00 0.46 0.22 71 1009.6
20260505163041 63 231 0.0 2.0 0.00 0.46 0.22 76 1009.7
20260505161539 63 231 0.0 3.0 0.00 0.46 0.22 76 1009.7
20260505153032 60 210 0.0 0.0 0.00 0.46 0.22 86 1009.4
20260505151527 60 148 0.0 2.0 0.00 0.46 0.22 89 1009.5